Time,TemperatureF,DewpointF,PressureIn,WindDirection,WindDirectionDegrees,WindSpeedMPH,WindSpeedGustMPH,Humidity,HourlyPrecipIn,Conditions,Clouds,dailyrainin,SoftwareType,DateUTC
2013-06-11 00:10:00,77.0,27.4,30.03,South,180,5.8,-999.0,16,-99.99,,,0.00,Acu-Link.com,2013-06-11 06:10:00,
2013-06-11 00:25:00,76.5,27.0,30.02,SSE,157,7.3,-999.0,16,-99.99,,,0.00,Acu-Link.com,2013-06-11 06:25:00,
2013-06-11 00:40:00,75.6,27.7,30.03,SE,135,6.8,-999.0,17,-99.99,,,0.00,Acu-Link.com,2013-06-11 06:40:00,
2013-06-11 00:55:00,75.2,28.8,30.02,SE,135,7.8,-999.0,18,-99.99,,,0.00,Acu-Link.com,2013-06-11 06:55:00,
2013-06-11 01:11:00,73.0,28.3,30.02,SSE,157,5.8,-999.0,19,-99.99,,,0.00,Acu-Link.com,2013-06-11 07:11:00,
2013-06-11 01:26:00,69.4,27.8,30.02,SSW,202,2.7,-999.0,21,-99.99,,,0.00,Acu-Link.com,2013-06-11 07:26:00,
2013-06-11 01:41:00,68.0,27.7,30.03,WSW,247,0.0,-999.0,22,-99.99,,,0.00,Acu-Link.com,2013-06-11 07:41:00,
2013-06-11 01:57:00,65.5,29.7,30.03,East,90,0.0,-999.0,26,-99.99,,,0.00,Acu-Link.com,2013-06-11 07:57:00,
2013-06-11 02:12:00,64.8,30.0,30.04,East,90,3.2,-999.0,27,-99.99,,,0.00,Acu-Link.com,2013-06-11 08:12:00,
2013-06-11 02:27:00,64.0,29.4,30.05,SE,135,2.7,-999.0,27,-99.99,,,0.00,Acu-Link.com,2013-06-11 08:27:00,
2013-06-11 02:43:00,63.5,29.8,30.06,ESE,112,4.7,-999.0,28,-99.99,,,0.00,Acu-Link.com,2013-06-11 08:43:00,
2013-06-11 02:58:00,62.1,31.1,30.07,ESE,112,5.3,-999.0,31,-99.99,,,0.00,Acu-Link.com,2013-06-11 08:58:00,
2013-06-11 03:13:00,62.1,31.1,30.07,SE,135,5.8,-999.0,31,-99.99,,,0.00,Acu-Link.com,2013-06-11 09:13:00,
2013-06-11 03:28:00,61.5,30.6,30.07,SE,135,6.3,-999.0,31,-99.99,,,0.00,Acu-Link.com,2013-06-11 09:28:00,
2013-06-11 03:43:00,60.8,30.8,30.07,SSE,157,6.3,-999.0,32,-99.99,,,0.00,Acu-Link.com,2013-06-11 09:43:00,
2013-06-11 03:58:00,60.1,30.1,30.08,SE,135,4.7,-999.0,32,-99.99,,,0.00,Acu-Link.com,2013-06-11 09:58:00,
2013-06-11 04:13:00,60.1,30.1,30.07,SE,135,6.8,-999.0,32,-99.99,,,0.00,Acu-Link.com,2013-06-11 10:13:00,
2013-06-11 04:28:00,59.2,29.4,30.08,SE,135,4.2,-999.0,32,-99.99,,,0.00,Acu-Link.com,2013-06-11 10:28:00,
2013-06-11 04:43:00,58.6,28.8,30.08,SE,135,4.7,-999.0,32,-99.99,,,0.00,Acu-Link.com,2013-06-11 10:43:00,
2013-06-11 04:59:00,57.9,29.7,30.09,SSE,157,0.0,-999.0,34,-99.99,,,0.00,Acu-Link.com,2013-06-11 10:59:00,
2013-06-11 05:14:00,56.1,28.8,30.10,ESE,112,3.2,-999.0,35,-99.99,,,0.00,Acu-Link.com,2013-06-11 11:14:00,
2013-06-11 05:29:00,57.0,28.9,30.11,SSE,157,4.7,-999.0,34,-99.99,,,0.00,Acu-Link.com,2013-06-11 11:29:00,
2013-06-11 05:44:00,56.8,28.7,30.11,East,90,4.2,-999.0,34,-99.99,,,0.00,Acu-Link.com,2013-06-11 11:44:00,
2013-06-11 05:59:00,56.7,28.7,30.11,SE,135,5.8,-999.0,34,-99.99,,,0.00,Acu-Link.com,2013-06-11 11:59:00,
2013-06-11 06:14:00,57.0,28.9,30.11,ESE,112,5.8,-999.0,34,-99.99,,,0.00,Acu-Link.com,2013-06-11 12:14:00,
2013-06-11 06:29:00,57.7,29.5,30.12,ESE,112,5.3,-999.0,34,-99.99,,,0.00,Acu-Link.com,2013-06-11 12:29:00,
2013-06-11 06:44:00,59.2,30.1,30.14,ESE,112,6.8,-999.0,33,-99.99,,,0.00,Acu-Link.com,2013-06-11 12:44:00,
2013-06-11 06:59:00,59.7,30.6,30.13,ESE,112,6.8,-999.0,33,-99.99,,,0.00,Acu-Link.com,2013-06-11 12:59:00,
2013-06-11 07:14:00,62.1,31.9,30.13,SE,135,5.3,-999.0,32,-99.99,,,0.00,Acu-Link.com,2013-06-11 13:14:00,
2013-06-11 07:29:00,65.8,32.7,30.13,SE,135,5.8,-999.0,29,-99.99,,,0.00,Acu-Link.com,2013-06-11 13:29:00,
2013-06-11 07:45:00,70.0,34.5,30.13,SE,135,4.2,-999.0,27,-99.99,,,0.00,Acu-Link.com,2013-06-11 13:45:00,
2013-06-11 08:00:00,74.3,36.2,30.14,East,90,2.7,-999.0,25,-99.99,,,0.00,Acu-Link.com,2013-06-11 14:00:00,
2013-06-11 08:15:00,79.9,33.9,30.13,NNE,22,0.0,-999.0,19,-99.99,,,0.00,Acu-Link.com,2013-06-11 14:15:00,
2013-06-11 08:31:00,85.5,29.0,30.13,East,90,3.7,-999.0,13,-99.99,,,0.00,Acu-Link.com,2013-06-11 14:31:00,
2013-06-11 08:46:00,84.0,25.9,30.14,SW,225,5.3,-999.0,12,-99.99,,,0.00,Acu-Link.com,2013-06-11 14:46:00,
2013-06-11 09:02:00,82.0,26.3,30.14,WSW,247,6.8,-999.0,13,-99.99,,,0.00,Acu-Link.com,2013-06-11 15:02:00,
2013-06-11 09:17:00,82.8,26.9,30.13,WSW,247,5.8,-999.0,13,-99.99,,,0.00,Acu-Link.com,2013-06-11 15:17:00,
2013-06-11 09:32:00,82.9,25.1,30.14,West,270,4.7,-999.0,12,-99.99,,,0.00,Acu-Link.com,2013-06-11 15:32:00,
2013-06-11 09:48:00,82.8,22.9,30.13,SW,225,6.8,-999.0,11,-99.99,,,0.00,Acu-Link.com,2013-06-11 15:48:00,
2013-06-11 10:03:00,84.0,21.6,30.12,SW,225,8.3,-999.0,10,-99.99,,,0.00,Acu-Link.com,2013-06-11 16:03:00,
2013-06-11 10:18:00,84.4,21.9,30.11,SW,225,8.3,-999.0,10,-99.99,,,0.00,Acu-Link.com,2013-06-11 16:18:00,
2013-06-11 10:34:00,86.0,23.1,30.11,West,270,9.9,-999.0,10,-99.99,,,0.00,Acu-Link.com,2013-06-11 16:34:00,
2013-06-11 10:49:00,86.0,20.6,30.10,SSW,202,2.7,-999.0,9,-99.99,,,0.00,Acu-Link.com,2013-06-11 16:49:00,
2013-06-11 11:04:00,88.2,19.5,30.11,West,270,8.9,-999.0,8,-99.99,,,0.00,Acu-Link.com,2013-06-11 17:04:00,
2013-06-11 11:19:00,87.8,22.0,30.11,West,270,4.7,-999.0,9,-99.99,,,0.00,Acu-Link.com,2013-06-11 17:19:00,
2013-06-11 11:34:00,90.1,20.9,30.09,WSW,247,17.6,-999.0,8,-99.99,,,0.00,Acu-Link.com,2013-06-11 17:34:00,
2013-06-11 11:49:00,88.0,19.3,30.09,SW,225,10.4,-999.0,8,-99.99,,,0.00,Acu-Link.com,2013-06-11 17:49:00,
2013-06-11 12:04:00,88.3,19.6,30.08,WSW,247,9.9,-999.0,8,-99.99,,,0.00,Acu-Link.com,2013-06-11 18:04:00,
2013-06-11 12:19:00,91.2,21.7,30.07,West,270,8.9,-999.0,8,-99.99,,,0.00,Acu-Link.com,2013-06-11 18:19:00,
2013-06-11 12:34:00,91.2,18.6,30.07,West,270,17.1,-999.0,7,-99.99,,,0.00,Acu-Link.com,2013-06-11 18:34:00,
2013-06-11 12:51:00,90.5,18.1,30.07,West,270,9.9,-999.0,7,-99.99,,,0.00,Acu-Link.com,2013-06-11 18:51:00,
2013-06-11 13:06:00,90.1,17.8,30.06,SW,225,13.0,-999.0,7,-99.99,,,0.00,Acu-Link.com,2013-06-11 19:06:00,
2013-06-11 13:21:00,90.3,17.9,30.06,WSW,247,16.1,-999.0,7,-99.99,,,0.00,Acu-Link.com,2013-06-11 19:21:00,
2013-06-11 14:07:00,92.5,15.9,30.03,West,270,16.6,-999.0,6,-99.99,,,0.00,Acu-Link.com,2013-06-11 20:07:00,
2013-06-11 14:22:00,93.4,12.4,30.03,WSW,247,22.2,-999.0,5,-99.99,,,0.00,Acu-Link.com,2013-06-11 20:22:00,
2013-06-11 14:37:00,92.3,11.7,30.02,SSW,202,18.6,-999.0,5,-99.99,,,0.00,Acu-Link.com,2013-06-11 20:37:00,
2013-06-11 14:52:00,91.9,6.4,30.02,West,270,17.6,-999.0,4,-99.99,,,0.00,Acu-Link.com,2013-06-11 20:52:00,
2013-06-11 15:07:00,93.0,7.2,30.02,WSW,247,21.2,-999.0,4,-99.99,,,0.00,Acu-Link.com,2013-06-11 21:07:00,
2013-06-11 15:22:00,92.8,7.0,30.02,West,270,15.0,-999.0,4,-99.99,,,0.00,Acu-Link.com,2013-06-11 21:22:00,
2013-06-11 15:37:00,93.4,7.4,30.01,WNW,292,14.5,-999.0,4,-99.99,,,0.00,Acu-Link.com,2013-06-11 21:37:00,
2013-06-11 15:53:00,92.8,12.0,30.00,WSW,247,21.2,-999.0,5,-99.99,,,0.00,Acu-Link.com,2013-06-11 21:53:00,
2013-06-11 16:08:00,93.0,12.1,30.00,West,270,16.1,-999.0,5,-99.99,,,0.00,Acu-Link.com,2013-06-11 22:08:00,
2013-06-11 16:23:00,92.3,6.7,29.99,WSW,247,14.5,-999.0,4,-99.99,,,0.00,Acu-Link.com,2013-06-11 22:23:00,
2013-06-11 16:38:00,94.1,-20.5,29.98,NW,315,22.7,-999.0,1,-99.99,,,0.00,Acu-Link.com,2013-06-11 22:38:00,
2013-06-11 16:53:00,92.8,-21.3,29.98,West,270,17.6,-999.0,1,-99.99,,,0.00,Acu-Link.com,2013-06-11 22:53:00,
2013-06-11 17:08:00,91.9,-21.8,29.98,WSW,247,20.7,-999.0,1,-99.99,,,0.00,Acu-Link.com,2013-06-11 23:08:00,
2013-06-11 17:23:00,91.2,-22.2,29.98,WSW,247,17.1,-999.0,1,-99.99,,,0.00,Acu-Link.com,2013-06-11 23:23:00,
2013-06-11 17:39:00,90.0,-22.9,29.99,SW,225,15.0,-999.0,1,-99.99,,,0.00,Acu-Link.com,2013-06-11 23:39:00,
2013-06-11 17:54:00,88.7,-23.7,29.98,West,270,20.2,-999.0,1,-99.99,,,0.00,Acu-Link.com,2013-06-11 23:54:00,
2013-06-11 18:09:00,89.2,-23.4,29.98,WSW,247,14.5,-999.0,1,-99.99,,,0.00,Acu-Link.com,2013-06-12 00:09:00,
2013-06-11 18:24:00,89.1,-23.5,29.99,WSW,247,18.6,-999.0,1,-99.99,,,0.00,Acu-Link.com,2013-06-12 00:24:00,
2013-06-11 18:39:00,86.5,-25.0,29.98,West,270,11.9,-999.0,1,-99.99,,,0.00,Acu-Link.com,2013-06-12 00:39:00,
2013-06-11 18:54:00,87.3,-24.5,29.98,WSW,247,12.5,-999.0,1,-99.99,,,0.00,Acu-Link.com,2013-06-12 00:54:00,
2013-06-11 19:09:00,87.1,-24.6,30.00,WSW,247,18.1,-999.0,1,-99.99,,,0.00,Acu-Link.com,2013-06-12 01:09:00,
2013-06-11 19:24:00,84.7,-26.1,29.99,West,270,10.4,-999.0,1,-99.99,,,0.00,Acu-Link.com,2013-06-12 01:24:00,
2013-06-11 19:40:00,85.1,-25.8,30.00,WSW,247,14.0,-999.0,1,-99.99,,,0.00,Acu-Link.com,2013-06-12 01:40:00,
2013-06-11 19:55:00,84.0,-26.5,30.02,SW,225,8.3,-999.0,1,-99.99,,,0.00,Acu-Link.com,2013-06-12 01:55:00,
2013-06-11 20:10:00,82.6,-27.3,30.00,WSW,247,8.9,-999.0,1,-99.99,,,0.00,Acu-Link.com,2013-06-12 02:10:00,
2013-06-11 20:25:00,80.2,-28.7,30.01,SW,225,3.7,-999.0,1,-99.99,,,0.00,Acu-Link.com,2013-06-12 02:25:00,
2013-06-11 20:40:00,77.5,-3.4,30.02,SSE,157,2.2,-999.0,4,-99.99,,,0.00,Acu-Link.com,2013-06-12 02:40:00,
2013-06-11 20:55:00,73.9,8.9,30.03,ESE,112,3.2,-999.0,8,-99.99,,,0.00,Acu-Link.com,2013-06-12 02:55:00,
2013-06-11 21:10:00,71.8,7.3,30.04,ESE,112,3.2,-999.0,8,-99.99,,,0.00,Acu-Link.com,2013-06-12 03:10:00,
2013-06-11 21:25:00,70.7,9.1,30.05,ESE,112,3.2,-999.0,9,-99.99,,,0.00,Acu-Link.com,2013-06-12 03:25:00,
2013-06-11 21:40:00,67.5,14.9,30.06,ESE,112,3.7,-999.0,13,-99.99,,,0.00,Acu-Link.com,2013-06-12 03:40:00,
2013-06-11 21:55:00,66.2,12.1,30.06,ESE,112,5.8,-999.0,12,-99.99,,,0.00,Acu-Link.com,2013-06-12 03:55:00,
2013-06-11 22:26:00,66.6,10.5,30.08,ESE,112,8.3,-999.0,11,-99.99,,,0.00,Acu-Link.com,2013-06-12 04:26:00,
2013-06-11 22:41:00,66.2,10.2,30.09,ESE,112,3.2,-999.0,11,-99.99,,,0.00,Acu-Link.com,2013-06-12 04:41:00,
2013-06-11 22:57:00,64.9,11.1,30.10,ESE,112,5.3,-999.0,12,-99.99,,,0.00,Acu-Link.com,2013-06-12 04:57:00,
2013-06-11 23:12:00,64.9,11.1,30.09,ESE,112,8.9,-999.0,12,-99.99,,,0.00,Acu-Link.com,2013-06-12 05:12:00,
2013-06-11 23:27:00,64.0,12.2,30.10,SE,135,7.8,-999.0,13,-99.99,,,0.00,Acu-Link.com,2013-06-12 05:27:00,
2013-06-11 23:42:00,63.9,12.1,30.11,ESE,112,5.3,-999.0,13,-99.99,,,0.00,Acu-Link.com,2013-06-12 05:42:00,
2013-06-11 23:57:00,63.0,13.1,30.10,ESE,112,5.8,-999.0,14,-99.99,,,0.00,Acu-Link.com,2013-06-12 05:57:00,